Regional Weather Roundup
Issued by NWS

Home | Current Version | Previous Version | Text Only | Print | Product List | Glossary Off
Versions: 1 2 3 4 5 6 7 8 9 10 11 12 13 14 15 16 17 18 19 20 21 22 23 24 25 26 27 28 29 30 31 32 33 34 35 36 37 38 39 40 41 42 43 44 45 46 47 48 49 50

000
ASUS45 KCYS 211810
RWRWY

WYOMING REGIONAL WEATHER ROUNDUP
NATIONAL WEATHER SERVICE CHEYENNE WY
1200 PM MDT SAT OCT 21 2017

NOTE:  "FAIR" INDICATES FEW OR NO CLOUDS BELOW 12,000 FEET
WITH NO SIGNIFICANT WEATHER AND/OR OBSTRUCTIONS TO VISIBILITY.

WYZ001-211900-
YELLOWSTONE NATIONAL PARK

CITY           SKY/WX    TMP DP  RH WIND       PRES   REMARKS
LK YELLOWSTONE   N/A     24  21  88 MISG      30.06R
6HR MIN TEMP:  23; 6HR MAX TEMP:  25;

W YELLOWSTONE  NOT AVBL

$$
WYZ002>013-054>058-071-098>099-211900-
NORTHERN WYOMING

CITY           SKY/WX    TMP DP  RH WIND       PRES   REMARKS
JACKSON        CLOUDY    33  19  56 SW15G23   30.12R WCI  23
CODY           FAIR      43  18  36 W12G21    29.99R
GREYBULL       FAIR      51  16  24 NE5       29.94F
6HR MIN TEMP:  28; 6HR MAX TEMP:  51;

WORLAND        FAIR      52  18  26 NE9       29.95F
6HR MIN TEMP:  21; 6HR MAX TEMP:  52;

SHERIDAN       FAIR      53  14  21 NW26G33   29.90S
6HR MIN TEMP:  28; 6HR MAX TEMP:  54;

BUFFALO        FAIR      50   9  19 NW20G28   29.92R
6HR MIN TEMP:  31; 6HR MAX TEMP:  50;

GILLETTE       FAIR      50  15  24 NW29G39   29.90R
6HR MIN TEMP:  39; 6HR MAX TEMP:  51;

HULETT         MOCLDY    50  21  32 NW16G22   29.88R
NEWCASTLE      FAIR      48  18  29 NW23G32   29.90F

$$
WYZ014>020-022>026-101>103-211900-
CENTRAL WYOMING

CITY           SKY/WX    TMP DP  RH WIND       PRES   REMARKS
BIG PINEY      CLOUDY    38  14  37 NW14      30.12S WCI  30
6HR MIN TEMP:  15; 6HR MAX TEMP:  38;

PINEDALE       FAIR      36  12  38 NW24      30.11S WCI  24
DUBOIS         FAIR      32  14  47 NW22G33   30.00S WCI  19
LANDER         FAIR      47  14  26 SE8       29.99S
6HR MIN TEMP:  26; 6HR MAX TEMP:  48;

RIVERTON       FAIR      48  12  23 W13G23    30.00R
6HR MIN TEMP:  32; 6HR MAX TEMP:  48;

CASPER         FAIR      48  11  22 W13G18    29.98S
6HR MIN TEMP:  28; 6HR MAX TEMP:  48;

DOUGLAS        FAIR      49  14  24 W25G33    29.96S
6HR MIN TEMP:  38; 6HR MAX TEMP:  49;


$$
WYZ021-027>030-104>119-211900-
SOUTHERN WYOMING

CITY           SKY/WX    TMP DP  RH WIND       PRES   REMARKS
EVANSTON       PTSUNNY   36  21  54 W18G25    30.18S WCI  26
6HR MIN TEMP:  22; 6HR MAX TEMP:  36;

KEMMERER       FAIR      32  18  55 W16       30.15S WCI  21
FORT BRIDGER   CLOUDY    39  20  45 W21G26    30.19S WCI  29
ROCK SPRINGS   FAIR      37  13  37 W24G32    30.13R WCI  26
6HR MIN TEMP:  25; 6HR MAX TEMP:  39;

DIXON            N/A     34  25  70 S12       30.16S WCI  25
RAWLINS        PTSUNNY   40  18  41 W23G35    30.07R WCI  30
6HR MIN TEMP:  26; 6HR MAX TEMP:  40;

SARATOGA       FAIR      32  27  80 W15G24    30.11R WCI  22
LARAMIE        FAIR      38  14  37 W25G32    30.04R WCI  27
6HR MIN TEMP:  26; 6HR MAX TEMP:  38;

CHEYENNE       FAIR      44  14  29 W33G46    29.99R
6HR MIN TEMP:  35; 6HR MAX TEMP:  44;

TORRINGTON     FAIR      54  13  19 NW21G29   29.93F
6HR MIN TEMP:  42; 6HR MAX TEMP:  55;

PINE BLUFFS    FAIR      48  16  27 NW28      29.98S

$$



USA.gov is the U.S. government's official web portal to all federal, state and local government web resources and services.